| time (UTC) | temp F | wind direction | speed MPH | gust MPH | rain 1hr in | rain 24hr in | rain mn in | humidity % | barometer mb |
| 20260507175046 | 82 | 139 | 7.0 | 12.0 | 0.00 | 0.06 | 0.00 | 57 | 1012.8 |
| 20260507174554 | 82 | 141 | 3.0 | 10.0 | 0.00 | 0.06 | 0.00 | 58 | 1012.8 |
| 20260507174044 | 81 | 184 | 4.0 | 10.0 | 0.00 | 0.06 | 0.00 | 58 | 1013.0 |
| 20260507173543 | 81 | 117 | 4.0 | 10.0 | 0.00 | 0.06 | 0.00 | 58 | 1013.1 |
| 20260507173046 | 81 | 85 | 3.0 | 11.0 | 0.00 | 0.06 | 0.00 | 59 | 1013.4 |
| 20260507172544 | 81 | 111 | 6.0 | 11.0 | 0.00 | 0.06 | 0.00 | 59 | 1013.6 |
| 20260507172045 | 81 | 121 | 6.0 | 9.0 | 0.00 | 0.06 | 0.00 | 60 | 1013.6 |
| 20260507171552 | 81 | 128 | 3.0 | 11.0 | 0.00 | 0.06 | 0.00 | 60 | 1013.7 |
| 20260507171039 | 80 | 59 | 3.0 | 11.0 | 0.00 | 0.06 | 0.00 | 62 | 1013.9 |
| 20260507170539 | 80 | 107 | 6.0 | 11.0 | 0.00 | 0.06 | 0.00 | 63 | 1014.0 |
| 20260507170040 | 79 | 64 | 5.0 | 9.0 | 0.00 | 0.06 | 0.00 | 63 | 1014.0 |
| 20260507165538 | 79 | 115 | 2.0 | 9.0 | 0.00 | 0.06 | 0.00 | 63 | 1014.0 |
| 20260507165037 | 79 | 128 | 4.0 | 10.0 | 0.00 | 0.06 | 0.00 | 63 | 1014.1 |
| 20260507164539 | 80 | 119 | 6.0 | 10.0 | 0.00 | 0.06 | 0.00 | 61 | 1014.0 |
| 20260507164037 | 80 | 91 | 2.0 | 8.0 | 0.00 | 0.06 | 0.00 | 62 | 1014.1 |
| 20260507163536 | 79 | 98 | 1.0 | 11.0 | 0.00 | 0.06 | 0.00 | 63 | 1014.1 |
| 20260507163036 | 79 | 320 | 4.0 | 11.0 | 0.00 | 0.06 | 0.00 | 60 | 1014.0 |
| 20260507162636 | 79 | 98 | 3.0 | 12.0 | 0.00 | 0.06 | 0.00 | 60 | 1014.0 |
| 20260507162036 | 80 | 111 | 8.0 | 12.0 | 0.00 | 0.06 | 0.00 | 59 | 1013.9 |
| 20260507161535 | 80 | 86 | 3.0 | 11.0 | 0.00 | 0.06 | 0.00 | 61 | 1013.9 |
| 20260507161035 | 80 | 97 | 5.0 | 13.0 | 0.00 | 0.06 | 0.00 | 60 | 1013.8 |
| 20260507160535 | 80 | 98 | 6.0 | 13.0 | 0.00 | 0.06 | 0.00 | 60 | 1014.0 |
| 20260507160033 | 80 | 135 | 6.0 | 18.0 | 0.00 | 0.06 | 0.00 | 61 | 1014.1 |
| 20260507155533 | 79 | 27 | 5.0 | 18.0 | 0.00 | 0.06 | 0.00 | 64 | 1014.1 |
| 20260507155030 | 79 | 67 | 8.0 | 13.0 | 0.00 | 0.06 | 0.00 | 63 | 1014.1 |
| 20260507154533 | 79 | 115 | 6.0 | 13.0 | 0.00 | 0.06 | 0.00 | 63 | 1014.1 |
| 20260507154028 | 78 | 79 | 7.0 | 14.0 | 0.00 | 0.06 | 0.00 | 64 | 1014.0 |
| 20260507153527 | 78 | 101 | 9.0 | 14.0 | 0.00 | 0.06 | 0.00 | 65 | 1014.0 |
| 20260507153025 | 78 | 82 | 8.0 | 18.0 | 0.00 | 0.06 | 0.00 | 66 | 1013.8 |
| 20260507152526 | 77 | 94 | 8.0 | 18.0 | 0.00 | 0.06 | 0.00 | 65 | 1013.8 |
| 20260507152023 | 78 | 123 | 10.0 | 17.0 | 0.00 | 0.06 | 0.00 | 65 | 1013.9 |
| 20260507151521 | 77 | 119 | 4.0 | 13.0 | 0.00 | 0.06 | 0.00 | 68 | 1013.9 |
| 20260507151020 | 77 | 117 | 7.0 | 13.0 | 0.00 | 0.06 | 0.00 | 68 | 1013.9 |
| 20260507150523 | 76 | 82 | 6.0 | 13.0 | 0.00 | 0.06 | 0.00 | 70 | 1013.8 |
| 20260507150018 | 76 | 84 | 8.0 | 16.0 | 0.00 | 0.06 | 0.00 | 69 | 1013.9 |
| 20260507145519 | 75 | 94 | 7.0 | 15.0 | 0.00 | 0.06 | 0.00 | 70 | 1014.0 |
| 20260507145014 | 75 | 51 | 10.0 | 15.0 | 0.00 | 0.06 | 0.00 | 71 | 1013.9 |
| 20260507144515 | 75 | 71 | 11.0 | 14.0 | 0.00 | 0.06 | 0.00 | 71 | 1013.9 |
| 20260507144011 | 75 | 97 | 6.0 | 16.0 | 0.00 | 0.06 | 0.00 | 73 | 1014.0 |
| 20260507143510 | 75 | 91 | 9.0 | 16.0 | 0.00 | 0.06 | 0.00 | 73 | 1014.1 |
| 20260507143010 | 74 | 100 | 9.0 | 13.0 | 0.00 | 0.06 | 0.00 | 73 | 1014.1 |
| 20260507142508 | 74 | 91 | 8.0 | 13.0 | 0.00 | 0.06 | 0.00 | 74 | 1014.2 |
| 20260507142015 | 74 | 55 | 7.0 | 15.0 | 0.00 | 0.06 | 0.00 | 74 | 1014.3 |
| 20260507141506 | 75 | 124 | 8.0 | 13.0 | 0.00 | 0.06 | 0.00 | 73 | 1014.3 |
| 20260507141006 | 75 | 136 | 4.0 | 15.0 | 0.00 | 0.06 | 0.00 | 74 | 1014.3 |
| 20260507140503 | 75 | 218 | 7.0 | 15.0 | 0.00 | 0.06 | 0.00 | 74 | 1014.1 |
| 20260507140006 | 74 | 102 | 7.0 | 14.0 | 0.00 | 0.06 | 0.00 | 75 | 1014.0 |
| 20260507135502 | 74 | 154 | 6.0 | 15.0 | 0.00 | 0.06 | 0.00 | 74 | 1014.0 |
| 20260507135059 | 75 | 91 | 8.0 | 15.0 | 0.00 | 0.06 | 0.00 | 72 | 1013.9 |
| 20260507134559 | 75 | 107 | 8.0 | 14.0 | 0.00 | 0.06 | 0.00 | 73 | 1013.7 |
| 20260507134057 | 75 | 113 | 7.0 | 15.0 | 0.00 | 0.06 | 0.00 | 72 | 1013.5 |
| 20260507133555 | 75 | 93 | 9.0 | 15.0 | 0.00 | 0.06 | 0.00 | 73 | 1013.4 |
| 20260507133054 | 75 | 140 | 7.0 | 14.0 | 0.00 | 0.06 | 0.00 | 73 | 1013.4 |
| 20260507132552 | 74 | 160 | 5.0 | 14.0 | 0.00 | 0.06 | 0.00 | 73 | 1013.2 |
| 20260507132053 | 74 | 123 | 6.0 | 14.0 | 0.00 | 0.06 | 0.00 | 75 | 1013.2 |
| 20260507131549 | 74 | 181 | 4.0 | 15.0 | 0.00 | 0.06 | 0.00 | 75 | 1012.9 |
| 20260507131048 | 73 | 94 | 9.0 | 17.0 | 0.00 | 0.06 | 0.00 | 75 | 1012.9 |
| 20260507130547 | 73 | 109 | 9.0 | 17.0 | 0.00 | 0.06 | 0.00 | 76 | 1012.8 |
| 20260507130045 | 72 | 121 | 7.0 | 15.0 | 0.00 | 0.06 | 0.00 | 77 | 1012.9 |
| 20260507125544 | 72 | 94 | 7.0 | 16.0 | 0.00 | 0.06 | 0.00 | 78 | 1012.7 |
| 20260507125042 | 72 | 117 | 7.0 | 16.0 | 0.00 | 0.06 | 0.00 | 77 | 1012.7 |
| 20260507124541 | 72 | 360 | 7.0 | 15.0 | 0.00 | 0.06 | 0.00 | 78 | 1012.8 |
| 20260507124040 | 71 | 96 | 8.0 | 12.0 | 0.00 | 0.06 | 0.00 | 78 | 1012.9 |
| 20260507123539 | 71 | 100 | 8.0 | 12.0 | 0.00 | 0.06 | 0.00 | 78 | 1012.7 |
| 20260507123038 | 71 | 360 | 6.0 | 12.0 | 0.00 | 0.06 | 0.00 | 80 | 1012.8 |
| 20260507122536 | 70 | 119 | 6.0 | 12.0 | 0.00 | 0.06 | 0.00 | 81 | 1012.8 |
| 20260507122036 | 69 | 119 | 7.0 | 10.0 | 0.00 | 0.06 | 0.00 | 82 | 1012.8 |
| 20260507121535 | 70 | 360 | 4.0 | 12.0 | 0.00 | 0.06 | 0.00 | 81 | 1012.8 |
| 20260507121035 | 70 | 86 | 9.0 | 13.0 | 0.00 | 0.06 | 0.00 | 81 | 1012.8 |
| 20260507120533 | 70 | 96 | 7.0 | 13.0 | 0.00 | 0.06 | 0.00 | 81 | 1012.8 |
| 20260507120032 | 70 | 100 | 6.0 | 12.0 | 0.00 | 0.06 | 0.00 | 81 | 1012.7 |
| 20260507115531 | 69 | 136 | 7.0 | 11.0 | 0.00 | 0.06 | 0.00 | 81 | 1012.8 |
| 20260507115029 | 69 | 92 | 5.0 | 9.0 | 0.00 | 0.06 | 0.00 | 81 | 1012.8 |
| 20260507114528 | 70 | 100 | 4.0 | 9.0 | 0.00 | 0.06 | 0.00 | 80 | 1012.8 |
| 20260507114028 | 70 | 100 | 5.0 | 10.0 | 0.00 | 0.06 | 0.00 | 80 | 1012.7 |
| 20260507113527 | 69 | 91 | 6.0 | 11.0 | 0.00 | 0.06 | 0.00 | 80 | 1012.7 |
| 20260507113027 | 69 | 360 | 6.0 | 11.0 | 0.00 | 0.06 | 0.00 | 81 | 1012.7 |
| 20260507112527 | 68 | 111 | 7.0 | 10.0 | 0.00 | 0.06 | 0.00 | 82 | 1012.8 |
| 20260507112028 | 67 | 92 | 4.0 | 8.0 | 0.00 | 0.06 | 0.00 | 84 | 1012.6 |
| 20260507111535 | 67 | 92 | 3.0 | 8.0 | 0.00 | 0.06 | 0.00 | 85 | 1012.6 |
| 20260507111024 | 67 | 99 | 3.0 | 9.0 | 0.00 | 0.06 | 0.00 | 85 | 1012.5 |
| 20260507110523 | 67 | 101 | 4.0 | 9.0 | 0.00 | 0.06 | 0.00 | 85 | 1012.5 |
| 20260507110023 | 67 | 90 | 3.0 | 6.0 | 0.00 | 0.06 | 0.00 | 85 | 1012.3 |
| 20260507105525 | 68 | 115 | 3.0 | 6.0 | 0.00 | 0.06 | 0.00 | 84 | 1012.5 |
| 20260507105021 | 68 | 116 | 3.0 | 6.0 | 0.00 | 0.06 | 0.00 | 84 | 1012.3 |
| 20260507104521 | 68 | 110 | 2.0 | 7.0 | 0.00 | 0.06 | 0.00 | 84 | 1012.3 |
| 20260507104023 | 68 | 115 | 4.0 | 7.0 | 0.00 | 0.06 | 0.00 | 84 | 1012.3 |
| 20260507103520 | 68 | 109 | 2.0 | 4.0 | 0.00 | 0.06 | 0.00 | 83 | 1012.2 |
| 20260507103020 | 68 | 117 | 2.0 | 4.0 | 0.00 | 0.06 | 0.00 | 83 | 1012.1 |
| 20260507102520 | 68 | 122 | 2.0 | 7.0 | 0.00 | 0.06 | 0.00 | 82 | 1012.0 |
| 20260507102020 | 68 | 94 | 3.0 | 8.0 | 0.00 | 0.06 | 0.00 | 82 | 1011.9 |
| 20260507101520 | 68 | 113 | 5.0 | 8.0 | 0.00 | 0.06 | 0.00 | 82 | 1011.9 |
| 20260507101020 | 68 | 111 | 3.0 | 8.0 | 0.00 | 0.06 | 0.00 | 82 | 1011.9 |
| 20260507100519 | 68 | 118 | 5.0 | 9.0 | 0.00 | 0.06 | 0.00 | 82 | 1011.9 |
| 20260507100020 | 68 | 95 | 4.0 | 9.0 | 0.00 | 0.06 | 0.00 | 83 | 1012.0 |
| 20260507095520 | 68 | 90 | 5.0 | 9.0 | 0.00 | 0.06 | 0.00 | 83 | 1012.0 |
| 20260507095019 | 68 | 71 | 5.0 | 12.0 | 0.00 | 0.06 | 0.00 | 83 | 1011.8 |
| 20260507094522 | 68 | 88 | 7.0 | 12.0 | 0.00 | 0.06 | 0.00 | 83 | 1011.8 |
| 20260507094018 | 68 | 109 | 7.0 | 12.0 | 0.00 | 0.06 | 0.00 | 83 | 1011.8 |
| 20260507093518 | 68 | 107 | 6.0 | 13.0 | 0.00 | 0.06 | 0.00 | 83 | 1011.7 |
| 20260507093118 | 68 | 111 | 8.0 | 13.0 | 0.00 | 0.06 | 0.00 | 83 | 1011.6 |
| 20260507092518 | 68 | 104 | 7.0 | 11.0 | 0.00 | 0.06 | 0.00 | 83 | 1011.6 |
| 20260507092017 | 68 | 82 | 7.0 | 12.0 | 0.00 | 0.06 | 0.00 | 84 | 1011.6 |
| 20260507091525 | 68 | 110 | 6.0 | 12.0 | 0.00 | 0.06 | 0.00 | 84 | 1011.6 |
| 20260507091023 | 68 | 115 | 6.0 | 11.0 | 0.00 | 0.06 | 0.00 | 83 | 1011.7 |
| 20260507090521 | 68 | 93 | 7.0 | 11.0 | 0.00 | 0.06 | 0.00 | 83 | 1011.7 |
| 20260507090019 | 69 | 90 | 7.0 | 13.0 | 0.00 | 0.06 | 0.00 | 82 | 1011.7 |
| 20260507085516 | 69 | 103 | 8.0 | 13.0 | 0.00 | 0.06 | 0.00 | 82 | 1011.6 |
| 20260507085015 | 69 | 89 | 8.0 | 13.0 | 0.00 | 0.06 | 0.00 | 82 | 1011.7 |
| 20260507084523 | 68 | 96 | 7.0 | 12.0 | 0.00 | 0.06 | 0.00 | 82 | 1011.8 |
| 20260507084014 | 68 | 82 | 5.0 | 11.0 | 0.00 | 0.06 | 0.00 | 82 | 1011.7 |
| 20260507083517 | 68 | 111 | 6.0 | 11.0 | 0.00 | 0.06 | 0.00 | 82 | 1011.7 |
| 20260507083013 | 67 | 101 | 4.0 | 9.0 | 0.00 | 0.06 | 0.00 | 83 | 1011.8 |
| 20260507082517 | 67 | 125 | 2.0 | 6.0 | 0.00 | 0.06 | 0.00 | 84 | 1011.9 |
| 20260507082011 | 67 | 100 | 2.0 | 5.0 | 0.00 | 0.06 | 0.00 | 84 | 1011.9 |
| 20260507081520 | 66 | 94 | 3.0 | 5.0 | 0.00 | 0.06 | 0.00 | 86 | 1012.0 |
| 20260507081011 | 66 | 97 | 3.0 | 5.0 | 0.00 | 0.06 | 0.00 | 87 | 1012.0 |
| 20260507080511 | 66 | 127 | 3.0 | 6.0 | 0.00 | 0.06 | 0.00 | 88 | 1012.1 |
| 20260507080009 | 66 | 103 | 1.0 | 6.0 | 0.00 | 0.06 | 0.00 | 88 | 1012.2 |
| 20260507075509 | 66 | 94 | 2.0 | 6.0 | 0.00 | 0.06 | 0.00 | 88 | 1012.3 |
| 20260507075011 | 66 | 76 | 3.0 | 6.0 | 0.00 | 0.06 | 0.00 | 88 | 1012.5 |
| 20260507074508 | 66 | 69 | 2.0 | 5.0 | 0.00 | 0.06 | 0.00 | 89 | 1012.4 |
| 20260507074009 | 66 | 49 | 1.0 | 4.0 | 0.00 | 0.06 | 0.00 | 89 | 1012.4 |
| 20260507073506 | 66 | 57 | 0.0 | 3.0 | 0.00 | 0.06 | 0.00 | 89 | 1012.3 |
| 20260507073008 | 66 | 66 | 1.0 | 3.0 | 0.00 | 0.06 | 0.00 | 88 | 1012.5 |
| 20260507072505 | 66 | 30 | 0.0 | 3.0 | 0.00 | 0.06 | 0.00 | 88 | 1012.5 |
| 20260507072004 | 66 | 38 | 1.0 | 3.0 | 0.00 | 0.06 | 0.00 | 87 | 1012.5 |
| 20260507071504 | 66 | 65 | 1.0 | 3.0 | 0.00 | 0.06 | 0.00 | 88 | 1012.6 |
| 20260507071005 | 67 | 5 | 1.0 | 3.0 | 0.00 | 0.06 | 0.00 | 87 | 1012.6 |
| 20260507070503 | 67 | 252 | 0.0 | 1.0 | 0.00 | 0.06 | 0.00 | 86 | 1012.8 |
| 20260507070003 | 67 | 252 | 0.0 | 1.0 | 0.00 | 0.06 | 0.00 | 85 | 1012.8 |
| 20260507065501 | 68 | 252 | 0.0 | 1.0 | 0.00 | 0.06 | 0.00 | 84 | 1013.0 |
| 20260507065100 | 68 | 252 | 0.0 | 3.0 | 0.00 | 0.06 | 0.00 | 84 | 1013.1 |
| 20260507064601 | 68 | 252 | 1.0 | 6.0 | 0.00 | 0.06 | 0.00 | 83 | 1013.2 |
| 20260507064059 | 69 | 92 | 3.0 | 6.0 | 0.00 | 0.06 | 0.00 | 83 | 1013.2 |
| 20260507064001 | 69 | 105 | 2.0 | 7.0 | 0.00 | 0.06 | 0.00 | 83 | 1013.2 |
| 20260507063558 | 68 | 60 | 1.0 | 7.0 | 0.00 | 0.06 | 0.00 | 83 | 1013.3 |
| 20260507063057 | 68 | 88 | 4.0 | 7.0 | 0.00 | 0.06 | 0.00 | 84 | 1013.2 |
| 20260507062555 | 67 | 79 | 1.0 | 8.0 | 0.00 | 0.06 | 0.00 | 85 | 1013.3 |
| 20260507062054 | 67 | 58 | 3.0 | 8.0 | 0.00 | 0.06 | 0.00 | 87 | 1013.3 |
| 20260507061553 | 66 | 80 | 2.0 | 5.0 | 0.00 | 0.06 | 0.00 | 88 | 1013.4 |
| 20260507061052 | 66 | 71 | 1.0 | 3.0 | 0.00 | 0.06 | 0.00 | 89 | 1013.5 |
| 20260507060554 | 66 | 71 | 0.0 | 3.0 | 0.00 | 0.06 | 0.00 | 89 | 1013.5 |
| 20260507055551 | 66 | 82 | 1.0 | 3.0 | 0.00 | 0.06 | 0.06 | 88 | 1013.8 |
| 20260507055051 | 66 | 27 | 0.0 | 2.0 | 0.00 | 0.06 | 0.06 | 87 | 1013.9 |
| 20260507054551 | 67 | 18 | 0.0 | 2.0 | 0.00 | 0.06 | 0.06 | 86 | 1014.0 |
| 20260507054050 | 67 | 346 | 0.0 | 2.0 | 0.00 | 0.06 | 0.06 | 85 | 1014.0 |
| 20260507053550 | 68 | 346 | 0.0 | 2.0 | 0.00 | 0.06 | 0.06 | 85 | 1014.1 |
| 20260507053055 | 68 | 16 | 0.0 | 4.0 | 0.00 | 0.06 | 0.06 | 84 | 1014.0 |
| 20260507052550 | 68 | 67 | 0.0 | 8.0 | 0.00 | 0.06 | 0.06 | 84 | 1014.1 |
| 20260507052050 | 67 | 91 | 2.0 | 8.0 | 0.00 | 0.06 | 0.06 | 86 | 1014.1 |
| 20260507051549 | 67 | 98 | 2.0 | 6.0 | 0.00 | 0.06 | 0.06 | 88 | 1014.0 |
| 20260507051049 | 66 | 69 | 1.0 | 3.0 | 0.00 | 0.06 | 0.06 | 90 | 1014.2 |
| 20260507050547 | 66 | 58 | 0.0 | 2.0 | 0.00 | 0.06 | 0.06 | 91 | 1014.3 |
| 20260507050049 | 67 | 31 | 0.0 | 4.0 | 0.00 | 0.06 | 0.06 | 91 | 1014.3 |
| 20260507045549 | 67 | 21 | 0.0 | 4.0 | 0.00 | 0.06 | 0.06 | 91 | 1014.4 |
| 20260507045046 | 67 | 58 | 1.0 | 3.0 | 0.00 | 0.06 | 0.06 | 91 | 1014.6 |
| 20260507044556 | 67 | 78 | 0.0 | 4.0 | 0.00 | 0.06 | 0.06 | 91 | 1014.6 |
| 20260507044044 | 67 | 78 | 0.0 | 4.0 | 0.00 | 0.06 | 0.06 | 91 | 1014.6 |
| 20260507043544 | 67 | 68 | 0.0 | 2.0 | 0.00 | 0.06 | 0.06 | 91 | 1014.6 |
| 20260507043044 | 68 | 68 | 0.0 | 0.0 | 0.00 | 0.06 | 0.06 | 90 | 1014.6 |
| 20260507042542 | 68 | 68 | 0.0 | 1.0 | 0.00 | 0.06 | 0.06 | 90 | 1014.7 |
| 20260507042047 | 68 | 68 | 0.0 | 1.0 | 0.00 | 0.06 | 0.06 | 91 | 1014.7 |
| 20260507041542 | 68 | 68 | 0.0 | 2.0 | 0.00 | 0.06 | 0.06 | 91 | 1014.7 |
| 20260507041042 | 68 | 69 | 1.0 | 2.0 | 0.00 | 0.06 | 0.06 | 91 | 1014.7 |
| 20260507040545 | 68 | 322 | 0.0 | 2.0 | 0.00 | 0.06 | 0.06 | 91 | 1014.6 |
| 20260507040042 | 68 | 5 | 0.0 | 2.0 | 0.00 | 0.06 | 0.06 | 91 | 1014.7 |
| 20260507035542 | 68 | 5 | 0.0 | 1.0 | 0.00 | 0.06 | 0.06 | 90 | 1014.7 |
| 20260507035042 | 68 | 5 | 0.0 | 1.0 | 0.00 | 0.06 | 0.06 | 90 | 1014.8 |
| 20260507034543 | 69 | 5 | 0.0 | 1.0 | 0.00 | 0.06 | 0.06 | 91 | 1014.8 |
| 20260507034040 | 69 | 5 | 0.0 | 1.0 | 0.00 | 0.06 | 0.06 | 91 | 1014.7 |
| 20260507033541 | 69 | 5 | 0.0 | 1.0 | 0.00 | 0.06 | 0.06 | 91 | 1014.6 |
| 20260507033043 | 69 | 331 | 0.0 | 1.0 | 0.00 | 0.06 | 0.06 | 90 | 1014.5 |
| 20260507032539 | 69 | 331 | 0.0 | 0.0 | 0.00 | 0.06 | 0.06 | 90 | 1014.4 |
| 20260507032041 | 69 | 331 | 0.0 | 2.0 | 0.00 | 0.06 | 0.06 | 90 | 1014.5 |
| 20260507031539 | 69 | 331 | 0.0 | 4.0 | 0.00 | 0.06 | 0.06 | 90 | 1014.4 |
| 20260507031038 | 70 | 306 | 2.0 | 4.0 | 0.00 | 0.06 | 0.06 | 90 | 1014.3 |
| 20260507030541 | 70 | 257 | 0.0 | 3.0 | 0.00 | 0.06 | 0.06 | 89 | 1014.3 |
| 20260507030039 | 70 | 254 | 1.0 | 3.0 | 0.00 | 0.06 | 0.06 | 89 | 1014.3 |
| 20260507025542 | 70 | 265 | 0.0 | 2.0 | 0.00 | 0.06 | 0.06 | 85 | 1014.3 |
| 20260507025038 | 69 | 132 | 0.0 | 4.0 | 0.00 | 0.06 | 0.06 | 84 | 1014.2 |
| 20260507024541 | 69 | 94 | 2.0 | 8.0 | 0.00 | 0.06 | 0.06 | 84 | 1014.1 |
| 20260507024038 | 69 | 119 | 3.0 | 8.0 | 0.00 | 0.06 | 0.06 | 84 | 1014.2 |
| 20260507023538 | 69 | 130 | 1.0 | 4.0 | 0.00 | 0.06 | 0.06 | 85 | 1014.2 |
| 20260507023037 | 69 | 94 | 0.0 | 4.0 | 0.00 | 0.06 | 0.06 | 87 | 1014.2 |
| 20260507022537 | 70 | 119 | 0.0 | 3.0 | 0.00 | 0.06 | 0.06 | 89 | 1014.2 |
| 20260507022037 | 70 | 289 | 0.0 | 1.0 | 0.00 | 0.06 | 0.06 | 90 | 1014.0 |
| 20260507021537 | 70 | 289 | 0.0 | 1.0 | 0.00 | 0.06 | 0.06 | 90 | 1014.0 |
| 20260507021038 | 70 | 289 | 0.0 | 1.0 | 0.00 | 0.06 | 0.06 | 90 | 1013.9 |
| 20260507020536 | 70 | 286 | 0.0 | 0.0 | 0.00 | 0.06 | 0.06 | 90 | 1013.9 |
| 20260507020045 | 70 | 286 | 0.0 | 0.0 | 0.00 | 0.06 | 0.06 | 90 | 1013.9 |
| 20260507015535 | 70 | 286 | 0.0 | 1.0 | 0.00 | 0.06 | 0.06 | 90 | 1014.0 |
| 20260507015036 | 70 | 265 | 0.0 | 2.0 | 0.00 | 0.06 | 0.06 | 90 | 1013.7 |
| 20260507014536 | 70 | 265 | 0.0 | 1.0 | 0.00 | 0.06 | 0.06 | 90 | 1013.9 |
| 20260507014037 | 70 | 261 | 0.0 | 1.0 | 0.00 | 0.06 | 0.06 | 90 | 1013.9 |
| 20260507013538 | 70 | 250 | 0.0 | 3.0 | 0.00 | 0.06 | 0.06 | 90 | 1013.8 |
| 20260507013034 | 70 | 246 | 1.0 | 3.0 | 0.00 | 0.06 | 0.06 | 90 | 1013.7 |
| 20260507012534 | 70 | 263 | 0.0 | 3.0 | 0.00 | 0.06 | 0.06 | 90 | 1013.6 |
| 20260507012034 | 70 | 313 | 1.0 | 3.0 | 0.00 | 0.06 | 0.06 | 89 | 1013.6 |
| 20260507011534 | 70 | 305 | 1.0 | 3.0 | 0.00 | 0.06 | 0.06 | 89 | 1013.6 |
| 20260507011033 | 70 | 289 | 1.0 | 4.0 | 0.00 | 0.06 | 0.06 | 89 | 1013.5 |
| 20260507010533 | 70 | 290 | 1.0 | 4.0 | 0.00 | 0.06 | 0.06 | 88 | 1013.5 |
| 20260507010037 | 71 | 309 | 0.0 | 4.0 | 0.00 | 0.06 | 0.06 | 88 | 1013.6 |
| 20260507005533 | 70 | 287 | 0.0 | 4.0 | 0.00 | 0.06 | 0.06 | 88 | 1013.5 |
| 20260507005032 | 71 | 300 | 0.0 | 4.0 | 0.00 | 0.06 | 0.06 | 89 | 1013.4 |
| 20260507004534 | 71 | 280 | 2.0 | 5.0 | 0.00 | 0.06 | 0.06 | 89 | 1013.5 |
| 20260507004031 | 71 | 293 | 3.0 | 5.0 | 0.00 | 0.06 | 0.06 | 88 | 1013.4 |
| 20260507003532 | 71 | 296 | 1.0 | 4.0 | 0.00 | 0.06 | 0.06 | 88 | 1013.3 |
| 20260507003032 | 71 | 321 | 1.0 | 3.0 | 0.00 | 0.06 | 0.06 | 87 | 1013.2 |
| 20260507002531 | 71 | 304 | 1.0 | 5.0 | 0.00 | 0.06 | 0.06 | 87 | 1013.1 |
| 20260507002031 | 71 | 290 | 0.0 | 5.0 | 0.00 | 0.06 | 0.06 | 86 | 1013.1 |
| 20260507001538 | 71 | 254 | 1.0 | 3.0 | 0.00 | 0.06 | 0.06 | 87 | 1012.9 |
| 20260507001031 | 71 | 273 | 0.0 | 3.0 | 0.00 | 0.06 | 0.06 | 86 | 1012.8 |
| 20260507000531 | 71 | 259 | 0.0 | 3.0 | 0.00 | 0.06 | 0.06 | 86 | 1012.7 |
| 20260507000033 | 72 | 285 | 0.0 | 2.0 | 0.00 | 0.06 | 0.06 | 85 | 1012.6 |
| 20260506235531 | 72 | 289 | 0.0 | 3.0 | 0.00 | 0.06 | 0.06 | 85 | 1012.6 |
| 20260506235029 | 72 | 324 | 0.0 | 3.0 | 0.00 | 0.06 | 0.06 | 84 | 1012.6 |
| 20260506234530 | 73 | 321 | 0.0 | 5.0 | 0.00 | 0.06 | 0.06 | 84 | 1012.5 |
| 20260506234029 | 73 | 329 | 3.0 | 6.0 | 0.00 | 0.06 | 0.06 | 82 | 1012.5 |
| 20260506233529 | 73 | 59 | 2.0 | 9.0 | 0.00 | 0.06 | 0.06 | 77 | 1012.4 |
| 20260506233029 | 74 | 108 | 6.0 | 9.0 | 0.00 | 0.06 | 0.06 | 75 | 1012.3 |
| 20260506232528 | 74 | 102 | 2.0 | 7.0 | 0.00 | 0.06 | 0.06 | 75 | 1012.3 |
| 20260506232028 | 74 | 184 | 1.0 | 4.0 | 0.00 | 0.06 | 0.06 | 75 | 1012.2 |
| 20260506231529 | 74 | 134 | 1.0 | 7.0 | 0.00 | 0.06 | 0.06 | 75 | 1012.1 |
| 20260506231030 | 74 | 115 | 4.0 | 7.0 | 0.00 | 0.06 | 0.06 | 75 | 1012.1 |
| 20260506230527 | 74 | 113 | 4.0 | 9.0 | 0.00 | 0.06 | 0.06 | 75 | 1012.1 |
| 20260506230030 | 74 | 105 | 3.0 | 9.0 | 0.00 | 0.12 | 0.06 | 75 | 1012.1 |
| 20260506225529 | 74 | 115 | 2.0 | 8.0 | 0.00 | 0.12 | 0.06 | 76 | 1012.1 |
| 20260506225027 | 74 | 188 | 1.0 | 4.0 | 0.00 | 0.12 | 0.06 | 78 | 1012.2 |
| 20260506224527 | 73 | 148 | 1.0 | 3.0 | 0.00 | 0.12 | 0.06 | 80 | 1012.1 |
| 20260506224026 | 73 | 188 | 0.0 | 2.0 | 0.00 | 0.12 | 0.06 | 82 | 1012.1 |
| 20260506223526 | 73 | 221 | 0.0 | 3.0 | 0.00 | 0.12 | 0.06 | 83 | 1012.0 |
| 20260506223026 | 72 | 228 | 1.0 | 3.0 | 0.00 | 0.12 | 0.06 | 83 | 1011.8 |
| 20260506222528 | 72 | 129 | 0.0 | 2.0 | 0.00 | 0.12 | 0.06 | 84 | 1011.8 |
| 20260506222027 | 72 | 72 | 0.0 | 2.0 | 0.00 | 0.12 | 0.06 | 84 | 1011.8 |
| 20260506221526 | 72 | 324 | 0.0 | 2.0 | 0.00 | 0.12 | 0.06 | 85 | 1011.8 |
| 20260506221027 | 72 | 336 | 0.0 | 2.0 | 0.00 | 0.12 | 0.06 | 86 | 1011.8 |
| 20260506220626 | 72 | 54 | 0.0 | 2.0 | 0.00 | 0.12 | 0.06 | 86 | 1011.7 |
| 20260506220026 | 71 | 61 | 0.0 | 3.0 | 0.00 | 0.12 | 0.06 | 86 | 1011.8 |
| 20260506215526 | 71 | 301 | 0.0 | 4.0 | 0.00 | 0.12 | 0.06 | 86 | 1011.9 |
| 20260506215024 | 71 | 290 | 1.0 | 3.0 | 0.00 | 0.12 | 0.06 | 85 | 1011.9 |
| 20260506214524 | 71 | 309 | 1.0 | 7.0 | 0.00 | 0.12 | 0.06 | 85 | 1011.8 |
| 20260506214024 | 72 | 298 | 3.0 | 7.0 | 0.00 | 0.12 | 0.06 | 85 | 1011.9 |
| 20260506213525 | 72 | 302 | 0.0 | 5.0 | 0.00 | 0.12 | 0.06 | 84 | 1011.7 |
| 20260506213024 | 72 | 241 | 1.0 | 7.0 | 0.00 | 0.12 | 0.06 | 84 | 1011.7 |
| 20260506212524 | 72 | 300 | 3.0 | 12.0 | 0.00 | 0.12 | 0.06 | 84 | 1011.6 |
| 20260506212024 | 73 | 311 | 5.0 | 12.0 | 0.00 | 0.12 | 0.06 | 83 | 1011.7 |
| 20260506211523 | 74 | 251 | 3.0 | 12.0 | 0.01 | 0.12 | 0.06 | 84 | 1011.5 |
| 20260506211024 | 74 | 266 | 4.0 | 8.0 | 0.04 | 0.12 | 0.06 | 78 | 1011.5 |
| 20260506210524 | 73 | 229 | 3.0 | 5.0 | 0.06 | 0.12 | 0.06 | 79 | 1011.4 |
| 20260506210024 | 73 | 277 | 0.0 | 6.0 | 0.06 | 0.12 | 0.06 | 79 | 1011.1 |
| 20260506205523 | 72 | 49 | 0.0 | 6.0 | 0.06 | 0.12 | 0.06 | 80 | 1011.0 |
| 20260506205023 | 72 | 360 | 2.0 | 6.0 | 0.06 | 0.12 | 0.06 | 80 | 1011.1 |
| 20260506204522 | 72 | 51 | 2.0 | 5.0 | 0.06 | 0.12 | 0.06 | 81 | 1011.1 |
| 20260506204021 | 72 | 348 | 1.0 | 8.0 | 0.06 | 0.12 | 0.06 | 81 | 1011.3 |
| 20260506203521 | 72 | 88 | 2.0 | 11.0 | 0.06 | 0.12 | 0.06 | 80 | 1011.4 |
| 20260506203027 | 72 | 31 | 5.0 | 11.0 | 0.06 | 0.12 | 0.06 | 79 | 1011.4 |
| 20260506202521 | 73 | 91 | 3.0 | 6.0 | 0.06 | 0.12 | 0.06 | 79 | 1011.6 |
| 20260506202021 | 74 | 355 | 3.0 | 6.0 | 0.06 | 0.12 | 0.06 | 78 | 1011.4 |
| 20260506201521 | 76 | 76 | 2.0 | 15.0 | 0.05 | 0.11 | 0.05 | 75 | 1011.6 |
| 20260506201020 | 78 | 98 | 9.0 | 15.0 | 0.00 | 0.06 | 0.00 | 68 | 1011.6 |
| 20260506200522 | 81 | 63 | 5.0 | 14.0 | 0.00 | 0.06 | 0.00 | 62 | 1011.5 |
| 20260506200019 | 82 | 322 | 5.0 | 14.0 | 0.00 | 0.06 | 0.00 | 61 | 1011.2 |
| 20260506195519 | 84 | 174 | 5.0 | 10.0 | 0.00 | 0.06 | 0.00 | 54 | 1011.6 |
| 20260506195022 | 85 | 78 | 2.0 | 8.0 | 0.00 | 0.06 | 0.00 | 51 | 1011.5 |
| 20260506194518 | 85 | 194 | 2.0 | 8.0 | 0.00 | 0.06 | 0.00 | 50 | 1011.5 |
| 20260506194019 | 85 | 119 | 1.0 | 6.0 | 0.00 | 0.06 | 0.00 | 50 | 1011.5 |
| 20260506193516 | 84 | 136 | 1.0 | 11.0 | 0.00 | 0.06 | 0.00 | 51 | 1011.4 |
| 20260506193016 | 84 | 51 | 4.0 | 11.0 | 0.00 | 0.06 | 0.00 | 51 | 1011.5 |
| 20260506192514 | 85 | 81 | 3.0 | 11.0 | 0.00 | 0.06 | 0.00 | 50 | 1011.7 |
| 20260506192013 | 84 | 49 | 3.0 | 6.0 | 0.00 | 0.06 | 0.00 | 51 | 1011.9 |
| 20260506191512 | 83 | 46 | 1.0 | 12.0 | 0.00 | 0.06 | 0.00 | 52 | 1012.1 |
| 20260506191011 | 84 | 109 | 6.0 | 12.0 | 0.00 | 0.06 | 0.00 | 52 | 1012.3 |
| 20260506190511 | 83 | 98 | 4.0 | 12.0 | 0.00 | 0.06 | 0.00 | 53 | 1012.3 |
| 20260506190010 | 84 | 107 | 5.0 | 11.0 | 0.00 | 0.06 | 0.00 | 53 | 1012.5 |
| 20260506185508 | 83 | 150 | 2.0 | 12.0 | 0.00 | 0.06 | 0.00 | 54 | 1012.5 |
| 20260506185007 | 83 | 67 | 6.0 | 13.0 | 0.00 | 0.06 | 0.00 | 55 | 1012.6 |
| 20260506184508 | 82 | 325 | 7.0 | 13.0 | 0.00 | 0.06 | 0.00 | 56 | 1012.7 |
| 20260506184006 | 81 | 83 | 8.0 | 13.0 | 0.00 | 0.06 | 0.00 | 56 | 1012.7 |
| 20260506183506 | 82 | 82 | 7.0 | 13.0 | 0.00 | 0.06 | 0.00 | 56 | 1012.7 |
| 20260506183007 | 82 | 131 | 7.0 | 13.0 | 0.00 | 0.06 | 0.00 | 57 | 1012.8 |
| 20260506182503 | 81 | 83 | 2.0 | 15.0 | 0.00 | 0.06 | 0.00 | 58 | 1012.8 |
| 20260506182003 | 81 | 65 | 7.0 | 17.0 | 0.00 | 0.06 | 0.00 | 57 | 1012.8 |
| 20260506181502 | 81 | 74 | 9.0 | 15.0 | 0.00 | 0.06 | 0.00 | 57 | 1012.8 |
| 20260506181003 | 80 | 71 | 7.0 | 13.0 | 0.00 | 0.06 | 0.00 | 59 | 1012.9 |
| 20260506180502 | 81 | 130 | 10.0 | 17.0 | 0.00 | 0.06 | 0.00 | 59 | 1013.0 |
| 20260506180004 | 81 | 108 | 9.0 | 17.0 | 0.00 | 0.06 | 0.00 | 59 | 1013.1 |